Theta_e
348 349 351 351 351 350 350 351 351 352 352 353 353 353 355 356 354 353 353 354 356 357 357 357 356 356 357 358 358 358 358 359 360 359 358 357 357 355 354 352 351 349 348 346 347 345 343 342 341 340 339 339 340 341 341 341 341 337 336 336 335 334 332 330 328 328 330 333 335 337 338 337 337 338 337 338 339 343 346 340 339 338 338 337 337
349 349 350 351 351 350 351 351 352 352 352 353 353 354 354 356 356 354 352 353 356 356 357 357 357 356 356 357 357 358 358 359 359 359 358 358 357 357 355 353 351 350 349 347 346 347 345 343 342 341 341 340 340 340 340 341 341 340 336 336 334 335 335 332 329 327 328 328 333 335 336 338 335 338 337 336 337 341 343 341 340 338 338 339 339
350 350 350 350 351 351 351 351 352 352 352 352 353 354 355 355 357 355 353 353 355 356 357 358 357 357 356 357 357 357 358 358 359 359 358 358 357 357 357 354 352 351 350 348 347 347 345 344 343 343 343 341 341 340 340 340 340 340 339 337 335 334 336 334 330 328 328 328 330 333 334 336 335 335 337 337 338 340 341 340 339 341 341 339 339
351 351 350 350 351 352 351 352 352 352 352 353 353 354 355 355 357 357 355 354 354 355 356 356 357 356 356 356 356 357 357 358 358 359 358 358 358 357 357 356 355 353 352 351 349 347 346 345 344 344 343 342 341 341 341 340 339 339 339 338 336 335 335 336 333 330 329 328 329 333 334 334 335 335 337 339 337 337 339 340 339 339 340 341 340
351 351 351 350 351 351 352 352 352 352 352 353 353 354 355 355 355 356 357 356 355 355 356 356 356 356 355 355 356 356 357 358 358 358 359 359 358 358 358 357 356 355 353 353 355 349 347 346 346 345 343 342 342 341 341 340 340 339 339 338 337 336 336 336 335 333 330 329 330 331 335 334 335 336 337 336 336 337 338 338 338 338 338 340 341
351 351 351 351 351 351 352 352 352 352 353 353 354 355 355 355 355 355 357 356 356 356 355 355 356 356 356 355 356 357 357 358 358 359 359 359 359 358 358 358 357 357 356 354 354 352 349 347 347 346 345 343 342 342 342 341 340 339 338 338 338 337 335 335 336 334 332 331 331 330 329 334 334 333 335 336 335 335 335 337 336 337 337 337 339
351 351 351 351 351 351 351 352 353 353 353 353 355 355 355 356 355 354 355 356 356 356 356 355 355 356 357 357 356 356 357 358 358 359 359 359 359 358 358 358 358 357 357 356 355 354 352 350 348 347 346 345 344 343 342 342 342 340 340 339 339 337 336 335 335 334 334 333 332 332 331 332 334 333 334 336 335 335 334 333 334 336 337 336 336
351 351 351 351 351 351 352 353 353 353 354 354 355 355 356 356 355 355 354 354 355 355 356 355 354 355 356 357 357 356 356 357 358 358 359 359 359 359 359 358 357 357 356 357 356 356 355 353 351 349 348 347 346 344 343 342 342 341 341 340 339 337 336 336 334 334 334 333 332 332 332 332 330 334 334 333 332 331 333 333 332 333 334 336 337
352 351 351 351 351 352 353 353 354 354 354 354 354 355 355 356 356 355 354 353 355 355 355 356 355 353 353 355 357 357 356 356 357 358 358 358 359 358 358 358 358 357 356 356 356 356 356 355 354 352 351 347 339 340 340 338 343 341 341 341 340 338 337 336 335 334 334 334 333 333 332 331 332 332 333 333 332 332 333 332 331 332 334 334 336
352 352 351 351 352 353 353 354 354 354 354 353 354 354 355 355 355 354 354 353 353 354 354 354 354 354 353 352 353 356 357 357 350 339 344 357 357 358 358 358 358 357 356 356 355 355 356 356 357 347 339 338 337 333 331 331 332 341 343 342 341 339 338 337 335 335 334 333 333 333 331 331 332 333 333 335 336 335 331 331 331 331 328 331 333
354 353 352 353 353 353 353 353 353 353 353 354 354 354 354 355 354 354 353 353 352 352 353 352 353 354 354 353 351 352 355 357 341 333 334 337 353 357 357 356 357 357 356 356 355 355 355 356 356 354 344 338 340 332 331 329 329 329 332 335 336 341 339 337 337 336 335 334 335 334 333 332 332 334 334 335 336 335 334 332 332 331 330 328 327
355 354 354 354 354 353 353 353 353 353 353 353 353 353 354 353 353 352 351 351 352 352 351 351 352 353 353 353 353 352 352 342 335 332 332 331 336 356 356 356 356 356 356 356 356 355 355 355 355 356 356 353 351 346 336 330 327 327 328 329 330 331 334 339 338 336 335 334 334 334 334 333 333 334 334 334 334 335 335 334 332 331 330 329 329
357 356 356 356 355 354 353 353 353 353 353 353 353 353 353 352 352 351 350 350 351 351 351 351 350 351 353 352 352 353 353 340 332 330 330 330 329 340 356 355 355 355 356 356 355 355 355 354 354 355 357 346 349 351 350 345 329 324 325 326 327 327 328 330 332 340 339 336 335 334 335 335 334 335 336 336 336 334 334 334 333 332 332 331 331
358 357 357 357 356 355 354 353 353 353 353 353 353 352 352 351 351 352 351 350 349 349 350 350 350 350 351 352 352 353 353 341 330 327 327 327 328 332 353 355 355 355 355 355 356 355 355 354 353 353 354 355 354 352 352 350 348 343 336 334 336 335 327 325 325 327 334 339 337 335 337 338 336 337 339 338 335 334 333 333 334 334 333 332 334
357 358 358 358 358 357 355 354 353 353 353 353 353 352 352 352 351 351 351 349 348 348 349 349 350 350 350 351 351 352 354 337 328 325 324 324 325 327 349 354 355 355 355 356 356 356 356 356 355 354 354 354 355 352 352 351 350 348 346 342 340 340 341 340 337 336 336 338 339 339 339 339 339 339 339 340 339 338 337 336 336 336 336 337 336
356 357 358 358 358 358 357 355 354 354 353 353 352 352 352 352 351 351 351 350 350 349 349 351 351 351 351 350 350 350 353 333 327 324 323 322 324 337 347 351 353 354 354 354 355 356 357 357 356 355 355 355 345 333 338 352 351 349 348 347 345 344 343 336 335 335 339 341 340 341 341 341 335 340 341 340 340 340 340 339 337 335 334 333 332
354 356 357 358 359 359 358 356 355 354 354 353 352 352 352 352 353 353 351 350 349 349 348 350 352 352 352 352 350 350 352 338 325 322 321 321 323 341 346 349 352 353 354 354 355 355 355 356 356 356 356 355 342 332 329 330 350 350 349 348 348 347 346 347 333 327 327 326 327 328 329 330 329 326 325 328 338 338 338 335 333 334 332 330 331
353 355 356 357 359 359 359 358 356 355 354 353 352 352 353 353 353 354 351 350 349 349 350 349 351 353 353 353 353 352 352 343 322 319 319 319 327 344 347 349 350 351 352 354 355 354 355 347 355 356 355 355 337 329 328 331 345 349 350 349 348 347 348 349 348 342 326 324 325 326 327 328 328 328 326 324 325 330 338 333 335 335 332 332 329
353 354 355 357 358 359 360 359 358 356 355 354 354 353 353 353 353 354 353 352 351 351 351 350 350 351 353 354 350 352 354 345 319 319 317 317 327 345 349 349 349 350 351 352 354 354 355 352 345 344 349 347 333 328 325 329 345 348 349 349 348 348 349 350 348 347 346 340 337 335 336 331 334 334 336 326 325 332 338 339 338 335 333 332 332
354 355 356 357 358 359 360 359 358 357 356 356 356 355 354 354 353 353 353 353 351 351 350 350 350 350 351 352 354 355 355 355 332 317 317 316 320 344 350 350 349 350 351 351 352 353 354 355 349 331 326 327 326 323 321 320 341 348 349 348 347 347 351 351 351 350 348 347 345 343 341 342 341 340 339 339 336 337 337 339 339 338 335 334 333
353 355 356 356 357 358 360 359 358 358 358 357 357 356 356 354 353 353 353 353 352 351 350 349 350 350 351 352 352 352 354 355 338 315 315 315 317 327 350 351 352 352 352 351 352 353 353 354 355 339 327 323 321 319 318 316 320 343 349 349 349 349 344 351 351 338 347 347 347 346 345 344 343 342 341 340 340 339 338 337 340 340 337 335 334
352 356 357 356 357 358 359 359 360 359 359 358 357 356 357 356 354 354 354 353 352 351 350 349 349 349 350 351 353 353 356 350 352 318 316 314 316 317 343 352 352 354 353 353 353 353 354 355 356 343 323 317 314 312 310 312 314 326 337 328 328 328 341 348 350 346 343 343 344 345 346 345 344 343 342 341 341 341 341 340 339 340 341 340 337
352 357 357 357 357 357 358 359 358 360 359 359 358 357 357 356 355 354 353 353 353 352 351 351 350 350 352 353 354 355 355 354 339 338 316 314 313 313 322 338 334 351 354 353 353 354 355 355 347 316 309 307 307 308 308 309 311 323 316 316 318 319 322 333 337 341 338 338 340 342 344 345 344 343 343 342 342 342 342 341 341 340 340 341 341
352 356 357 357 357 358 359 360 360 360 360 359 359 358 358 358 357 356 355 354 354 353 353 352 351 350 350 351 355 357 355 350 331 324 327 312 311 310 312 317 313 323 330 337 337 338 341 339 330 312 307 306 307 309 311 311 321 314 313 314 315 317 328 333 334 336 336 334 334 335 338 342 344 345 345 345 344 344 343 343 342 342 341 340 341
351 354 356 357 358 359 360 361 361 361 361 361 359 359 359 359 357 357 356 356 355 354 354 353 352 351 350 350 350 344 337 333 329 320 316 313 313 310 311 313 314 314 330 336 338 339 323 309 306 307 309 309 312 314 317 318 316 313 313 313 317 327 332 335 337 337 337 337 337 337 338 341 343 345 348 348 347 346 344 342 341 340 341 342 341
350 353 356 357 358 360 361 362 362 362 363 363 362 362 361 360 359 358 358 357 356 355 354 354 353 352 351 351 348 331 328 328 329 330 328 323 315 309 311 311 314 313 321 327 318 312 312 314 315 315 316 319 325 326 326 327 317 315 315 317 328 332 333 335 336 336 337 338 339 340 342 344 345 347 348 348 347 345 343 339 336 336 338 338 337
352 353 355 356 357 359 361 362 362 363 363 363 363 363 363 362 360 357 358 358 356 356 355 353 353 353 352 350 332 327 324 323 323 324 325 327 328 324 322 319 312 312 322 327 323 323 322 322 320 315 315 315 316 316 317 320 323 325 327 328 330 332 333 334 334 334 335 335 336 339 342 344 346 346 345 346 345 343 338 336 335 334 335 336 335
352 353 356 357 357 359 360 369 364 361 358 359 359 360 361 363 361 359 358 358 357 356 356 355 354 354 353 334 326 325 323 323 323 323 324 325 325 325 326 326 324 324 320 317 320 322 322 318 319 324 324 324 324 323 323 324 323 323 324 325 325 327 327 324 325 332 333 335 336 337 337 339 339 342 343 344 345 342 337 335 334 334 334 335 333
354 355 357 357 357 358 360 362 354 339 326 318 311 311 313 321 335 336 328 331 359 360 358 357 356 356 344 330 327 324 324 324 323 316 320 316 323 325 324 322 321 319 312 309 320 319 319 320 321 321 321 320 320 320 321 322 323 323 323 324 324 325 325 325 325 325 327 329 330 332 333 335 335 337 338 339 340 342 338 335 335 334 334 334 332
354 355 356 357 357 358 356 351 342 334 328 324 321 319 313 303 306 323 326 319 311 323 334 345 343 337 331 328 329 328 326 326 311 303 302 301 301 304 304 301 305 309 304 307 313 315 315 315 314 316 317 318 319 320 321 322 323 323 324 320 324 324 324 323 324 324 325 325 326 327 328 329 330 332 334 335 337 340 338 330 333 334 333 332 331
351 352 353 354 353 352 347 342 335 331 329 328 327 326 324 319 303 302 308 310 307 305 304 307 314 322 330 325 319 315 315 307 301 301 300 301 301 300 300 299 297 297 301 312 314 314 314 315 316 317 318 317 318 320 323 323 323 323 324 324 325 324 323 324 324 324 324 324 324 325 325 326 327 329 330 331 333 336 337 333 334 334 333 332 331
347 346 347 345 343 341 339 335 332 330 330 330 329 328 326 324 323 308 301 305 304 302 303 304 306 308 312 317 319 316 306 301 300 300 302 301 301 299 296 296 296 296 298 304 314 314 314 317 319 321 322 323 324 324 324 325 325 325 326 325 325 326 325 325 324 325 325 325 325 324 324 325 325 326 327 329 329 333 335 334 332 331 332 332 331
344 344 344 342 339 339 335 333 331 331 330 330 329 329 327 325 323 322 319 305 301 300 301 303 303 304 305 305 308 308 307 303 300 300 301 299 297 297 296 296 296 295 298 311 319 318 318 321 324 325 325 325 326 326 327 327 327 327 327 326 325 325 326 326 324 326 325 325 325 325 324 324 324 324 323 325 327 329 332 333 333 331 331 330 329
343 342 340 339 336 335 334 332 331 331 331 331 330 329 328 327 326 325 325 325 324 315 305 301 300 301 301 302 302 301 300 299 299 299 298 297 296 295 297 299 293 293 304 320 318 319 322 325 326 326 327 326 327 327 327 327 327 327 326 325 325 325 326 326 325 324 324 324 325 324 324 324 324 325 325 326 328 329 329 329 331 330 330 330 329
346 348 347 343 337 335 334 332 331 330 330 330 330 329 328 329 329 328 326 326 326 325 325 323 311 306 310 304 298 298 298 298 298 296 295 295 296 295 299 316 321 320 317 317 318 321 324 326 326 326 327 326 326 327 326 327 326 325 325 324 324 324 324 324 323 323 323 324 324 323 323 322 324 324 324 325 326 327 328 329 329 329 330 330 330
342 342 343 342 338 336 334 332 331 331 331 330 330 330 331 331 330 329 326 327 327 326 326 325 322 310 305 301 298 298 298 300 301 299 296 296 296 301 323 320 318 317 320 322 323 324 324 326 326 326 327 327 327 326 326 325 325 325 325 324 323 323 322 322 321 322 322 323 323 322 320 322 323 324 326 326 326 326 326 327 328 328 328 328 327
339 339 339 339 338 337 336 334 333 332 331 330 332 334 334 333 332 330 330 329 329 329 328 327 326 325 319 318 306 300 299 301 301 300 300 300 302 316 323 321 320 319 323 325 325 325 325 326 326 326 327 326 326 326 326 325 325 325 321 323 322 321 321 321 321 321 322 322 323 323 322 322 322 322 322 323 324 326 323 322 320 318 318 322 320
338 338 337 337 337 336 335 334 332 331 333 334 335 335 334 333 332 331 331 330 329 327 326 327 328 326 325 323 328 324 315 306 307 309 310 311 317 321 322 321 321 322 323 325 326 326 325 324 325 327 326 326 326 326 325 325 325 324 322 321 321 321 317 321 321 321 321 322 322 322 321 321 321 321 319 319 318 318 318 319 319 319 318 317 317
334 328 328 331 332 335 334 333 333 333 333 333 333 333 332 332 332 331 330 328 327 326 326 324 324 324 323 324 324 326 322 323 322 322 321 319 319 319 320 321 323 323 323 323 325 325 324 324 325 326 326 326 326 325 325 324 323 321 320 319 320 320 321 321 321 321 320 320 320 321 320 320 320 320 320 320 319 320 320 319 319 319 318 317 318
334 334 330 328 331 331 333 334 333 333 333 332 331 332 332 331 330 328 327 326 325 324 324 323 323 323 321 324 323 323 323 322 320 320 320 320 321 321 321 321 322 320 320 320 321 321 322 323 324 325 325 325 324 322 321 321 320 318 318 319 319 319 320 320 320 320 320 320 319 319 318 318 319 319 320 319 318 318 318 318 318 318 318 317 316
334 333 333 327 329 332 334 332 331 331 331 330 330 329 329 329 329 328 327 326 325 325 324 324 322 319 315 312 311 314 323 322 320 321 322 322 321 323 321 320 318 319 320 320 319 318 318 319 319 320 321 320 321 318 318 318 318 318 318 319 319 319 319 320 320 320 320 319 319 318 318 318 318 318 317 318 314 316 318 318 318 317 317 317 317
331 329 330 329 328 330 329 329 329 330 329 329 327 326 327 327 327 327 327 327 327 326 324 323 321 317 308 304 306 308 321 322 320 320 321 319 319 319 320 319 319 318 320 321 321 320 319 317 318 317 317 318 318 318 318 319 318 318 318 318 319 319 319 319 319 319 319 319 318 318 319 318 318 318 318 313 318 318 318 318 318 317 317 317 316
328 327 327 328 327 326 325 325 325 323 323 322 322 326 325 323 323 323 323 323 322 322 321 320 321 322 319 309 312 313 322 322 325 319 319 319 318 319 318 318 319 319 320 320 320 321 321 320 319 318 318 318 318 318 317 316 317 316 317 316 317 318 318 319 319 319 319 319 318 318 318 318 318 318 318 318 319 318 318 318 317 317 316 316 315
324 324 323 323 323 322 322 321 321 321 320 322 321 319 319 318 318 318 317 316 316 316 316 316 317 318 318 317 316 319 322 322 322 322 323 322 321 321 322 322 320 318 320 319 319 319 319 319 318 316 316 315 315 315 315 315 317 317 317 317 316 316 317 317 317 318 318 317 317 317 318 317 318 318 317 317 317 317 317 317 317 317 317 316 316
322 321 320 319 318 318 318 318 318 317 318 316 314 315 316 314 314 314 314 313 314 313 313 313 314 314 315 315 315 316 317 317 318 318 317 318 319 319 320 321 322 321 320 320 319 319 319 318 316 315 313 313 312 311 311 311 311 311 312 314 316 317 317 317 319 318 316 317 317 317 317 316 316 316 316 316 315 315 315 315 315 315 314 315 314
319 319 318 317 316 316 315 314 316 314 313 312 312 311 311 311 312 312 311 311 311 311 310 311 311 311 311 312 313 313 313 313 313 314 314 314 315 315 316 316 318 317 312 311 310 309 310 311 313 313 311 310 309 307 307 306 306 306 306 306 307 309 313 317 318 317 317 316 316 316 315 315 315 316 319 314 314 314 313 312 313 313 313 312 311
318 317 316 315 314 314 314 313 312 311 310 310 310 309 308 308 308 310 310 310 309 308 308 308 308 308 308 309 309 310 310 310 310 311 311 312 312 311 311 312 312 310 308 307 306 305 304 304 304 305 306 306 305 303 302 301 300 300 301 300 299 300 301 307 316 316 316 316 315 315 315 314 315 313 313 312 312 312 312 311 312 312 312 311 310
315 315 314 314 312 311 310 310 310 311 309 308 308 307 307 306 306 306 306 306 306 306 305 305 306 306 307 307 307 308 308 308 308 308 308 309 309 308 307 307 308 307 306 304 304 303 303 302 301 301 301 301 302 301 300 299 298 297 296 296 295 295 295 298 308 311 312 314 314 313 313 312 311 311 311 310 309 310 310 309 310 310 310 310 309
312 311 310 310 309 309 308 308 308 306 306 305 306 305 305 304 304 303 304 303 303 303 303 303 303 304 305 305 305 305 305 306 305 305 306 306 306 305 304 304 304 303 302 301 301 301 300 300 300 299 299 298 299 299 299 299 297 296 295 294 294 293 290 293 299 304 306 312 312 311 311 311 310 309 310 309 308 308 308 308 308 309 308 308 308
310 310 309 308 307 307 307 306 305 304 304 304 303 302 303 302 302 302 302 301 301 301 301 302 302 302 302 302 303 302 302 302 302 303 304 304 304 304 303 301 300 300 299 299 299 299 298 298 297 297 297 297 297 297 298 298 297 296 295 294 293 290 289 290 295 296 304 309 309 308 308 307 307 307 307 308 307 308 308 307 307 307 307 307 306
309 308 307 307 306 306 305 304 303 303 302 302 301 300 300 299 299 300 300 299 299 299 299 299 300 300 300 301 302 301 301 301 301 301 302 302 302 302 302 300 299 299 298 297 297 297 297 297 297 296 295 295 295 296 297 297 296 295 294 293 292 292 291 291 295 292 295 302 308 307 307 307 306 306 306 306 307 307 309 309 308 307 306 306 306
Wind_Speed
17 15 14 14 14 15 14 13 14 12 12 11 11 11 10 10 10 11 8 8 9 10 11 12 12 11 11 10 11 10 10 10 9 8 8 9 8 8 7 8 9 8 7 7 6 6 8 8 8 8 6 6 7 7 6 6 5 6 5 6 7 6 7 7 8 9 5 3 4 5 4 5 5 9 10 9 8 8 9 8 9 9 9 8 8
17 16 15 15 16 16 16 14 13 12 13 13 13 12 11 11 11 10 11 11 10 11 12 11 11 12 11 11 11 11 11 11 10 9 9 9 9 7 8 9 9 9 7 8 8 7 8 9 9 8 7 8 8 8 8 7 6 6 6 7 7 7 6 7 8 6 10 3 4 4 2 4 6 5 10 10 9 6 9 8 7 8 9 8 8
17 15 15 15 16 15 14 14 13 14 15 13 14 13 12 11 10 11 12 11 10 11 11 11 12 12 11 11 11 11 11 11 10 10 10 11 11 10 10 10 11 11 10 11 10 9 8 9 10 9 7 8 9 9 8 8 7 7 8 7 7 7 7 7 6 7 8 8 4 5 5 4 7 7 8 8 8 8 10 9 9 7 7 8 8
15 15 15 16 15 14 13 13 14 14 15 13 15 14 13 12 11 12 12 11 12 11 11 12 11 11 12 11 11 11 11 11 11 11 12 12 12 12 11 11 11 11 12 11 11 10 11 10 11 10 9 10 10 9 8 7 8 8 8 8 7 8 7 6 7 7 6 7 5 7 5 5 6 5 5 6 7 7 8 8 7 8 8 7 8
16 16 16 17 15 15 15 14 14 15 15 13 14 14 13 12 11 12 11 12 12 11 11 10 11 11 12 12 12 12 13 13 12 12 12 12 13 12 12 11 11 12 12 12 11 12 12 13 13 11 10 11 10 9 9 10 9 8 9 8 8 7 5 6 8 6 7 9 7 4 4 5 5 6 6 7 7 6 5 7 8 8 8 8 7
16 16 16 16 15 17 16 15 16 17 16 14 15 14 13 13 12 11 11 12 12 12 12 11 11 13 13 13 13 13 12 12 13 14 14 13 12 12 12 12 12 12 12 12 12 12 12 13 13 11 11 12 12 11 10 11 10 10 10 9 8 6 7 6 6 7 8 10 8 8 4 6 5 6 6 7 8 7 7 6 5 6 7 8 8
16 16 16 17 16 17 17 17 16 16 16 15 14 13 14 14 14 13 12 13 13 12 13 13 12 13 14 13 13 13 13 13 13 13 13 12 12 12 12 12 12 12 12 13 13 12 13 12 12 11 12 13 13 12 11 10 10 12 12 11 9 7 7 7 7 8 8 9 9 8 8 6 6 8 6 6 7 8 9 7 8 8 6 8 9
16 17 16 16 16 17 17 16 15 15 14 14 14 14 14 14 14 13 12 13 13 13 14 14 13 12 13 13 13 12 12 12 12 12 12 13 12 13 13 13 13 13 12 12 12 12 13 13 12 12 13 12 13 12 11 11 10 10 10 9 8 8 9 8 7 8 9 9 10 10 8 8 5 5 2 3 6 7 8 9 12 10 9 8 9
15 16 16 16 16 15 14 13 13 13 14 14 14 15 14 14 14 13 13 13 12 13 13 13 13 13 12 12 13 11 11 12 11 12 13 14 13 14 14 14 14 13 13 12 12 12 12 12 12 12 14 16 18 16 14 13 10 11 11 9 10 10 9 9 9 8 9 10 10 8 8 8 8 7 8 9 11 14 8 7 9 8 7 7 8
15 15 16 16 15 14 14 13 13 13 14 15 15 15 14 14 14 14 15 15 14 13 13 13 13 13 13 13 12 11 11 10 14 20 17 14 14 13 12 13 13 13 13 12 12 12 13 12 13 18 18 18 18 19 19 18 18 15 12 11 11 11 11 11 11 10 10 12 12 11 11 12 11 11 12 13 11 7 6 8 10 9 3 7 6
16 16 17 16 15 15 14 14 14 15 15 15 14 15 16 14 14 14 14 14 15 14 13 14 13 13 14 14 13 12 11 12 19 18 20 21 15 13 13 12 12 12 12 12 12 13 12 13 12 14 15 15 17 20 20 20 20 20 21 18 15 14 12 13 13 12 11 12 12 11 12 14 13 12 13 12 9 11 12 9 10 7 9 9 11
16 16 16 15 14 15 14 14 15 15 15 16 16 15 15 14 14 14 14 14 14 13 14 15 14 13 13 13 14 13 13 16 19 19 20 21 18 14 12 11 10 11 11 12 12 11 12 12 11 10 11 14 15 15 17 20 21 22 22 22 20 20 19 16 14 11 12 13 13 13 12 13 14 12 12 10 12 11 11 9 10 11 11 11 11
16 16 15 15 15 15 14 14 15 14 15 15 14 13 14 15 15 15 15 14 12 13 15 14 14 14 13 14 14 15 14 18 19 19 19 20 21 17 11 11 11 11 11 12 12 12 11 11 11 10 11 17 15 14 13 15 19 22 22 22 22 21 21 23 21 17 13 14 14 15 15 14 14 14 14 14 10 10 9 10 10 10 12 13 13
15 16 15 15 15 15 15 15 15 15 14 14 13 14 14 16 15 14 12 11 13 14 14 15 14 14 14 14 15 14 15 16 19 20 19 20 20 17 13 13 12 12 12 12 12 13 13 12 12 12 12 11 11 13 13 14 13 13 14 14 15 19 21 24 24 23 19 15 14 16 17 12 15 16 14 10 10 13 12 13 12 12 12 15 17
15 15 15 15 15 15 15 15 15 15 15 14 14 15 16 15 14 14 13 13 14 15 15 15 15 15 15 15 14 13 13 18 18 20 20 20 20 17 13 12 11 12 12 12 13 13 13 13 13 13 13 12 11 12 12 13 12 12 13 14 16 17 17 19 18 16 16 16 16 18 18 15 16 17 12 9 15 14 14 16 16 16 15 10 7
15 14 15 15 16 15 15 15 15 14 14 15 15 16 16 16 16 14 13 12 12 12 12 12 14 14 15 15 15 15 15 18 19 19 21 20 19 12 12 13 13 13 12 12 13 12 12 13 13 13 14 13 14 17 15 12 12 14 15 15 14 15 17 21 21 19 19 18 18 19 18 18 18 16 14 12 11 12 11 10 7 6 6 9 13
14 15 15 16 16 15 15 15 15 15 15 15 16 16 16 15 14 12 13 13 13 13 14 14 14 14 14 14 15 16 15 15 18 19 19 19 14 10 11 11 12 13 13 13 12 12 12 13 13 13 13 13 15 16 17 15 13 15 15 15 14 14 18 17 16 20 23 25 25 25 26 24 21 20 18 20 16 12 9 10 14 9 9 13 13
13 14 15 15 15 15 15 16 16 15 15 16 16 15 15 13 13 12 14 14 14 15 14 12 12 13 14 15 15 15 15 12 15 16 18 18 17 13 11 11 13 13 13 12 11 12 13 18 16 14 14 14 15 17 17 14 13 15 15 15 16 18 20 13 6 13 22 24 25 26 26 24 23 22 19 18 20 16 14 17 15 10 14 14 14
14 13 13 14 15 15 15 16 16 16 16 16 15 15 15 14 13 11 12 12 13 11 10 10 11 11 12 14 15 15 12 9 13 16 18 18 16 11 11 11 12 12 11 12 12 12 12 12 17 17 16 16 17 16 17 15 14 15 15 15 18 20 21 8 11 14 10 11 14 17 19 23 21 20 21 25 23 22 20 20 13 13 15 14 14
12 11 12 13 14 15 14 16 16 16 16 15 14 14 12 11 12 13 12 11 12 11 10 10 12 11 10 10 10 11 11 7 10 17 19 20 21 14 11 11 12 12 11 12 12 11 11 11 12 16 19 20 19 17 16 18 16 15 14 15 17 21 16 11 15 13 12 13 14 14 18 20 18 19 19 19 19 19 21 19 17 15 15 16 15
10 10 11 12 13 15 14 15 17 15 15 15 14 13 12 12 12 12 12 11 11 11 12 11 10 10 9 9 8 7 8 8 10 18 19 21 22 20 12 13 12 11 12 12 11 11 10 10 9 12 18 20 19 18 17 16 16 15 15 15 16 19 17 13 16 14 9 10 12 14 15 14 15 16 16 17 18 17 17 19 18 18 18 18 17
8 9 11 12 13 14 14 14 15 14 13 13 12 11 10 11 11 12 10 10 12 12 11 10 10 9 8 8 8 7 8 14 9 16 20 22 22 24 14 13 13 12 12 11 10 9 10 9 10 5 6 7 5 7 11 12 13 9 14 19 21 21 18 16 14 2 2 8 12 15 14 14 14 14 15 15 16 17 17 17 19 20 19 18 18
8 9 10 11 12 13 12 14 13 10 11 12 12 12 10 11 11 10 11 11 11 11 11 10 9 8 7 7 6 7 7 10 17 14 19 21 22 22 21 16 16 14 11 11 9 7 4 3 2 7 6 8 8 9 9 10 7 9 16 19 20 21 15 11 14 5 5 12 14 15 15 14 14 14 14 15 15 16 17 18 20 20 19 18 19
7 9 9 10 11 11 12 12 12 11 13 12 12 11 11 10 10 10 10 10 10 10 9 8 8 8 7 6 5 6 4 2 2 4 7 14 13 15 16 12 6 1 2 3 2 3 3 3 5 10 11 12 11 11 12 11 10 13 14 16 16 15 11 11 11 11 10 11 14 17 17 17 16 16 16 16 16 17 18 19 19 18 17 15 13
7 8 9 9 10 9 10 10 12 11 11 12 11 11 10 10 10 9 9 9 9 10 9 8 9 8 7 7 5 3 3 4 4 5 6 10 10 10 9 9 11 6 5 4 2 2 4 6 8 8 8 9 10 10 9 10 11 11 13 14 13 8 9 10 11 10 10 11 12 14 16 17 18 18 18 16 15 15 14 10 5 3 8 12 13
8 9 8 8 9 9 9 9 10 10 11 10 11 11 12 11 11 9 10 10 10 9 9 8 8 7 7 6 5 4 4 5 5 5 6 7 5 6 8 7 6 7 5 3 4 5 5 5 6 7 7 7 6 5 6 7 12 14 14 13 8 8 9 10 11 11 13 13 13 14 15 15 15 17 17 16 15 13 12 11 10 12 14 14 12
8 7 8 8 8 8 10 9 8 7 8 8 8 9 9 9 10 10 10 10 9 8 8 8 7 7 7 6 6 5 5 5 5 5 5 6 6 6 7 6 5 5 3 2 3 2 3 3 4 4 3 6 4 4 5 6 7 7 6 7 7 7 8 8 9 11 12 13 13 13 14 14 14 15 16 15 15 12 9 12 14 16 16 15 16
8 8 8 8 8 8 8 10 10 7 4 3 4 5 6 8 10 10 10 9 8 8 8 8 8 8 7 7 7 6 5 4 4 5 5 6 6 5 5 5 4 4 4 2 2 2 2 3 3 4 5 6 7 7 6 6 5 6 7 7 8 8 10 13 13 10 11 11 13 14 15 14 16 17 16 16 15 12 11 14 15 16 16 14 13
6 7 7 7 8 7 8 8 8 9 9 11 10 8 6 4 1 2 1 1 7 10 9 8 8 6 8 10 10 6 4 6 4 2 5 5 6 6 5 5 4 4 3 2 2 3 5 7 8 7 7 5 5 6 6 7 7 6 7 7 7 7 8 7 9 10 10 11 13 13 15 14 16 16 16 17 16 14 11 13 14 15 14 16 19
6 7 7 7 7 8 7 8 8 9 9 10 10 10 14 15 10 4 1 5 5 4 7 6 8 9 9 4 2 8 9 7 9 10 8 9 8 8 7 6 5 5 5 5 4 6 5 5 3 3 5 5 6 6 7 6 7 8 8 9 8 8 8 8 9 10 10 11 12 14 15 15 16 17 16 17 16 15 13 15 13 12 12 15 17
5 6 6 6 8 9 9 8 8 8 8 9 9 11 9 13 18 17 12 9 11 17 17 16 12 11 15 9 7 14 15 14 12 9 8 7 9 10 10 10 9 8 7 5 5 6 5 5 3 3 3 3 4 5 5 6 7 8 8 9 9 9 9 9 9 9 11 12 13 13 15 15 17 17 17 17 17 15 12 12 16 17 21 23 23
6 5 5 6 8 8 8 9 10 9 8 8 10 11 11 12 12 15 16 16 17 17 18 18 17 16 16 17 13 7 8 9 10 9 8 8 8 9 9 9 8 8 4 3 5 4 3 5 4 3 2 3 4 5 5 6 6 7 7 8 9 9 9 10 10 11 12 12 13 14 15 16 16 17 17 17 16 15 14 13 13 15 14 14 16
6 6 6 8 8 9 9 9 9 10 10 9 9 10 12 12 13 8 11 15 18 17 16 16 18 17 16 14 14 13 11 9 9 9 8 9 10 9 9 8 7 6 6 5 5 6 4 2 2 3 4 5 5 5 6 5 6 6 6 7 8 9 9 11 11 11 11 12 13 14 15 16 17 17 16 15 14 14 14 15 14 14 13 13 13
5 7 8 9 9 8 8 8 8 8 8 9 9 9 9 12 13 13 11 9 11 14 15 14 13 15 13 14 14 13 11 10 8 8 9 10 11 11 9 5 4 2 1 6 6 5 2 3 4 4 4 4 4 5 5 6 6 6 7 7 8 8 9 10 10 11 11 12 13 14 15 15 15 15 14 12 12 12 13 12 11 12 14 15 15
6 8 13 10 9 9 8 8 9 9 8 9 9 10 9 8 9 10 11 11 10 9 7 5 6 10 12 9 10 12 11 10 10 11 11 12 11 11 10 6 5 4 5 3 2 3 4 5 4 4 4 4 4 5 5 6 6 6 6 7 8 9 9 9 10 11 12 12 13 13 14 16 16 14 13 12 10 10 10 10 10 12 13 15 18
7 7 7 9 10 9 9 8 8 9 9 8 9 10 10 9 9 9 9 9 10 10 8 7 5 3 11 11 12 12 12 12 14 14 13 13 12 7 6 7 6 4 3 3 4 5 4 4 4 4 4 4 4 4 4 5 5 6 6 7 8 8 9 9 10 11 11 11 12 14 15 14 14 13 12 11 11 10 9 9 9 11 14 13 7
7 8 8 7 8 9 9 9 8 9 10 11 11 10 10 9 9 10 9 9 9 8 9 9 9 7 7 5 7 9 11 13 13 13 12 11 9 4 5 5 5 3 4 5 5 5 4 4 3 3 3 4 4 4 4 5 5 5 6 6 6 7 7 8 9 9 10 11 11 12 13 14 14 13 11 9 7 5 4 5 8 10 12 2 12
6 7 8 9 9 10 10 9 10 12 10 9 8 9 10 9 9 8 9 8 8 8 8 7 7 8 8 6 6 6 7 8 10 9 8 7 6 5 5 4 4 5 5 5 4 4 3 2 2 3 3 3 4 4 4 4 4 5 6 6 7 7 10 10 11 10 10 10 10 11 11 12 12 11 11 11 12 11 9 6 9 13 18 26 18
7 9 11 14 12 11 10 11 10 10 9 9 10 10 11 10 10 9 8 7 7 7 7 7 7 7 7 6 5 5 6 6 6 6 5 5 4 3 4 4 5 5 5 4 2 1 2 2 3 3 3 3 4 4 4 4 4 5 5 6 7 7 8 8 9 9 9 9 9 9 9 10 10 11 11 11 12 11 11 11 11 15 19 20 19
7 8 8 13 11 11 9 10 11 11 10 10 9 8 9 10 9 9 8 8 8 7 7 7 7 6 6 6 6 6 7 6 6 5 5 4 3 3 5 6 6 5 3 1 0 1 1 1 2 2 3 3 4 4 4 4 4 4 5 5 6 7 7 7 7 8 8 8 8 8 9 9 9 9 11 12 12 11 12 11 11 15 17 18 17
7 9 9 9 12 12 10 9 9 9 8 8 7 7 7 7 8 8 8 8 8 7 7 7 6 5 5 5 7 8 7 6 5 4 5 5 5 6 5 3 2 1 0 1 1 1 1 2 2 2 3 3 4 4 5 4 4 4 5 5 5 6 6 7 7 7 8 8 8 8 8 8 8 8 10 9 10 10 11 12 13 13 13 14 16
8 9 10 9 11 11 11 10 9 11 10 9 9 9 8 8 8 7 8 7 8 7 7 7 6 5 5 8 7 9 6 5 5 5 5 5 4 3 2 2 0 1 1 0 0 1 2 2 2 2 2 3 4 4 4 4 4 4 4 5 5 6 6 7 7 7 7 7 7 7 8 8 8 7 8 7 7 8 10 11 11 11 12 11 11
10 10 10 10 11 11 11 10 10 10 10 11 10 10 10 10 9 9 10 9 9 8 8 7 6 6 7 6 6 7 6 6 6 6 6 6 6 5 4 2 1 1 1 1 1 0 0 1 2 2 2 3 3 3 3 3 3 3 4 4 5 5 5 6 6 7 7 7 7 7 7 8 8 7 7 7 7 7 8 8 8 10 10 10 8
10 10 11 11 11 11 10 10 11 10 10 13 12 11 10 9 10 10 10 10 9 8 8 7 6 7 7 8 9 9 8 8 7 7 7 7 7 6 6 6 4 1 0 2 3 3 3 4 5 5 4 5 5 5 5 5 5 5 5 5 4 4 5 5 5 5 5 5 6 6 6 6 7 6 6 6 6 6 6 6 8 9 9 8 8
10 10 11 10 10 11 10 10 10 10 11 11 10 10 10 10 10 9 9 9 8 8 7 7 7 7 8 8 8 8 8 7 7 8 7 7 7 7 7 6 6 7 7 8 8 7 7 7 6 6 6 6 6 6 6 6 5 5 4 5 6 6 6 6 6 6 4 3 4 5 5 5 6 5 5 5 5 5 6 5 6 7 8 7 8
10 10 10 10 10 10 10 9 9 10 10 10 10 10 10 10 9 9 9 8 8 7 7 7 7 8 7 7 7 8 8 8 7 7 6 7 7 7 7 6 7 8 8 7 8 8 8 7 7 6 6 6 7 7 7 7 7 6 6 6 5 5 6 6 6 5 5 3 2 2 3 4 4 4 5 3 4 4 4 4 5 5 5 6 7
11 10 10 10 10 10 10 9 9 9 10 10 10 10 9 9 9 9 9 10 9 8 8 8 8 8 8 7 7 8 7 7 7 7 7 7 7 7 7 7 7 8 8 8 9 9 8 8 8 7 7 7 7 8 8 7 7 7 7 7 7 8 7 7 6 4 4 3 3 1 1 2 3 3 4 3 4 4 4 4 4 4 4 5 6
11 10 10 10 10 10 9 9 11 11 10 10 10 9 9 9 9 9 8 8 9 8 8 8 8 7 7 7 7 7 7 7 6 6 6 7 7 7 8 8 8 8 8 9 9 9 8 8 8 8 8 8 9 8 8 8 8 9 8 8 8 9 11 11 4 5 5 3 2 3 3 3 4 3 3 4 2 2 3 3 3 3 3 4 4
12 11 11 10 10 10 9 9 9 9 9 9 9 10 8 9 9 8 8 8 8 8 8 8 8 7 7 7 7 7 6 7 7 7 7 7 7 7 8 8 9 8 8 8 9 8 8 8 8 8 8 7 8 8 8 9 9 9 9 9 12 18 16 14 9 7 8 5 4 3 4 4 4 3 4 4 3 2 3 3 3 4 4 4 4
12 12 12 11 11 10 9 9 9 9 9 8 9 9 8 8 8 8 8 8 8 9 9 9 9 8 7 7 8 7 7 7 7 8 8 8 8 8 8 9 9 9 8 8 7 8 7 7 8 9 8 8 8 8 8 8 8 8 8 10 14 15 15 16 13 15 10 5 6 5 5 5 4 4 4 4 3 2 2 2 3 3 5 5 5
12 12 12 11 11 10 10 10 9 9 9 8 8 8 9 9 8 9 9 9 9 8 8 8 7 8 8 7 7 7 7 7 7 7 8 8 8 8 9 9 9 9 8 8 8 8 7 8 7 8 8 8 8 8 8 8 7 8 10 13 14 15 15 13 10 12 13 9 5 6 7 7 7 7 6 6 4 4 2 2 2 3 4 4 5
Wind_Direction
187 189 186 190 188 190 192 192 194 194 195 198 202 204 203 202 202 203 188 192 188 190 191 193 194 196 194 195 195 196 198 200 200 199 200 204 201 201 196 194 203 210 203 206 207 198 204 209 215 219 210 212 223 224 219 216 208 210 212 198 205 198 180 190 212 249 284 231 229 240 231 190 215 211 211 211 208 210 209 209 207 209 213 217 221
189 188 188 190 191 192 193 192 193 193 196 198 202 203 202 201 200 195 198 200 190 192 194 194 194 195 196 197 198 198 199 200 198 195 201 205 206 201 201 197 203 209 203 210 208 207 204 211 218 217 208 215 218 221 219 217 209 213 217 206 210 205 201 180 215 216 249 283 267 261 267 191 227 204 207 207 216 205 209 213 213 210 213 212 217
189 188 190 191 195 194 191 192 191 195 198 200 204 205 204 203 197 198 202 202 198 197 196 195 195 195 197 198 199 200 200 201 199 197 201 204 205 205 203 202 204 205 205 211 209 205 207 213 219 212 206 217 223 225 220 220 212 214 220 211 215 213 204 204 188 222 235 250 226 251 235 216 212 222 218 219 211 201 208 216 214 214 217 212 213
186 187 190 195 195 192 192 193 193 196 200 202 206 207 205 205 200 202 204 202 201 204 201 200 197 198 201 201 200 202 201 202 200 201 203 203 206 208 206 206 208 210 210 210 208 204 209 213 219 211 206 214 223 224 223 221 218 218 222 220 217 219 210 205 212 213 224 242 245 216 232 215 237 244 230 224 215 215 217 223 221 221 218 215 214
186 189 191 193 191 192 194 193 196 198 202 203 207 207 208 208 205 206 204 204 204 203 206 202 202 201 204 205 203 203 203 202 202 204 206 206 207 208 209 209 211 213 215 213 207 208 210 214 217 208 206 215 223 223 220 220 222 220 224 223 219 220 215 209 218 214 222 232 251 231 226 232 232 229 212 213 236 241 237 229 223 223 225 223 219
188 188 190 191 193 194 194 193 196 199 201 203 205 205 207 209 208 209 206 207 205 205 203 202 203 205 207 208 206 206 205 203 203 205 206 207 208 211 211 211 212 214 217 217 213 210 214 217 218 208 207 212 221 220 218 220 221 224 227 227 221 212 215 221 216 220 223 236 236 257 230 225 245 239 221 213 219 232 242 246 254 241 228 233 231
187 188 189 192 194 196 195 197 197 197 199 201 202 204 206 208 208 210 207 209 207 206 206 204 205 206 209 207 208 207 206 204 205 207 208 207 208 210 213 214 215 215 218 218 217 216 217 220 220 213 211 215 220 220 218 219 219 225 225 227 221 210 218 219 214 220 226 236 243 238 246 235 215 237 237 214 225 217 218 228 243 233 227 224 233
187 188 189 193 197 198 198 197 196 197 198 199 202 204 206 207 208 210 208 210 210 208 207 207 208 207 209 209 211 207 206 207 208 208 208 208 208 210 212 214 217 218 219 220 220 220 219 221 222 218 217 218 219 223 215 218 218 226 228 225 221 213 220 223 218 221 228 236 237 241 235 240 245 250 249 189 231 252 227 213 225 224 226 226 227
189 190 191 195 199 198 196 195 196 196 197 199 203 205 206 207 207 207 208 210 212 212 211 209 209 211 212 211 212 208 206 208 208 208 208 210 209 212 211 214 215 219 222 222 221 221 223 223 224 222 219 220 220 221 219 214 212 221 226 217 219 216 221 222 222 219 229 234 242 238 241 235 234 229 228 218 215 224 214 205 236 229 220 228 238
188 191 194 197 196 195 194 194 194 194 196 200 203 205 207 207 207 208 209 210 211 211 212 211 210 210 213 215 213 210 210 211 212 208 206 207 210 213 214 215 216 218 222 225 227 224 224 224 226 224 221 220 221 222 224 221 218 218 219 211 215 214 218 220 219 218 222 229 233 230 231 235 228 221 227 227 224 228 217 201 225 228 193 240 258
190 192 197 196 195 193 192 195 192 195 198 200 202 204 206 207 208 210 210 209 210 210 210 212 211 211 212 214 214 212 214 216 213 207 209 209 208 211 214 217 216 219 221 223 227 228 229 227 230 227 224 224 225 223 223 223 223 224 226 219 212 209 215 218 223 216 219 228 233 229 231 236 233 226 227 231 220 218 220 210 219 206 206 217 239
191 194 196 194 194 193 195 194 195 198 197 201 202 203 204 206 210 211 210 210 210 209 211 213 212 212 213 215 216 215 217 218 213 209 209 210 209 211 214 220 219 219 221 223 227 230 232 232 230 230 226 223 225 226 227 227 226 226 228 227 224 219 216 214 218 218 219 228 232 230 229 232 237 228 229 224 227 222 223 213 212 209 214 217 226
191 194 194 194 194 194 194 195 197 198 201 202 203 202 204 209 211 211 212 211 208 210 214 212 213 213 214 215 217 218 220 216 212 209 209 209 210 211 216 216 220 223 221 223 227 228 231 234 236 231 232 225 224 226 225 229 231 232 231 232 232 228 227 228 224 220 215 224 230 235 226 228 234 236 221 221 217 224 222 222 223 220 220 223 228
191 193 194 195 195 193 194 195 197 200 199 200 200 202 205 211 212 212 213 210 212 215 215 215 214 213 215 217 219 220 221 218 208 208 208 209 209 206 220 217 219 224 224 224 226 228 229 231 234 237 235 230 225 224 228 230 230 231 236 237 238 239 238 236 233 230 228 226 228 236 237 218 231 236 228 209 204 219 216 223 219 221 222 225 225
190 191 193 194 194 194 194 195 197 198 197 197 199 203 207 211 210 211 209 210 212 214 214 214 215 214 215 218 223 223 225 217 206 207 207 207 208 202 219 221 224 225 226 227 228 228 230 230 234 238 238 234 229 223 225 229 231 234 233 233 234 237 236 235 232 229 230 234 235 238 242 231 233 239 234 206 214 219 215 220 216 216 223 238 274
192 190 192 193 194 192 192 194 197 197 196 197 199 204 206 206 208 207 208 212 216 217 220 220 219 217 216 217 221 227 228 214 206 205 205 207 202 203 216 223 226 229 229 228 230 232 232 232 234 239 240 239 234 223 222 224 230 235 236 238 237 237 240 236 229 224 227 230 231 237 240 237 233 235 230 219 221 224 229 236 240 235 225 231 234
194 191 192 192 192 191 191 192 194 196 195 197 201 204 206 207 208 202 208 212 213 214 217 216 218 217 216 215 219 226 232 215 203 204 203 203 192 210 215 222 228 232 234 232 232 233 233 231 233 240 242 242 235 223 223 215 234 237 239 242 241 242 245 242 225 228 232 235 238 241 244 246 243 240 235 223 218 212 216 225 230 203 210 228 233
196 191 193 191 190 190 191 191 193 194 195 198 202 205 206 206 206 199 207 211 215 217 217 219 220 219 218 218 217 222 229 219 196 200 199 196 193 204 213 218 228 231 236 238 237 237 235 232 232 237 242 246 236 225 221 207 230 238 241 245 248 248 251 244 224 229 226 231 237 242 247 249 249 249 244 232 222 208 209 224 221 195 220 222 230
198 193 191 189 189 189 190 192 193 194 196 199 201 203 203 204 202 198 208 211 219 220 218 221 223 223 223 223 220 222 229 214 185 191 196 195 196 209 211 221 228 231 234 239 239 241 243 238 234 235 242 247 241 230 222 207 227 235 238 242 248 252 253 245 232 240 231 224 237 240 246 245 242 240 239 231 222 214 217 226 218 205 220 221 224
197 189 186 188 188 189 190 191 193 194 196 199 200 202 201 200 200 200 205 208 214 216 216 219 223 225 224 225 223 220 222 215 184 191 192 195 194 201 211 218 228 230 232 237 240 241 242 245 240 234 237 244 247 240 231 213 223 235 237 241 247 255 263 252 242 240 239 235 240 233 236 239 237 236 238 237 229 223 225 225 222 216 219 224 218
185 182 182 185 188 189 190 191 193 195 195 196 197 198 196 199 198 199 203 205 212 215 214 216 220 225 221 218 219 212 201 202 193 189 194 194 198 199 213 216 222 226 230 235 236 241 240 239 246 238 232 236 241 246 245 234 228 238 242 244 246 254 264 263 259 248 272 275 267 255 249 245 240 237 235 234 233 228 226 226 225 221 221 222 221
176 173 180 185 188 190 191 192 193 193 193 191 193 196 196 195 196 197 199 202 207 213 212 216 220 223 218 210 209 206 193 195 192 198 193 196 198 201 208 216 213 220 229 235 238 241 241 237 245 288 343 354 326 286 270 266 260 260 260 263 267 269 268 265 273 359 19 265 260 261 260 256 249 243 239 238 235 232 229 225 224 226 222 221 216
173 176 180 184 188 188 189 187 189 191 191 189 188 192 189 190 193 192 196 201 205 209 212 213 217 220 215 211 201 199 197 205 196 196 200 197 199 202 208 212 213 216 227 235 235 256 279 301 37 44 1 347 331 316 299 289 277 248 255 266 275 281 291 286 282 268 243 260 266 269 265 261 261 254 244 241 237 233 231 226 225 224 227 225 221
176 175 181 185 184 187 185 186 187 188 187 184 186 187 186 189 189 191 193 196 198 204 207 207 209 211 207 196 196 197 198 177 53 29 190 209 210 209 218 229 15 17 341 303 14 2 348 360 323 314 311 302 301 295 286 278 268 272 272 270 274 281 280 279 275 268 241 230 244 254 260 260 260 259 252 244 238 232 230 229 224 222 229 238 233
178 184 183 182 182 182 181 182 184 184 183 180 183 185 185 182 187 189 188 193 197 201 205 197 205 202 187 185 156 94 56 70 75 49 100 157 166 176 189 201 238 239 268 255 257 309 351 326 321 330 331 323 313 307 299 293 291 280 276 277 278 269 273 272 274 273 267 251 243 246 251 254 254 255 256 254 249 243 240 241 234 219 239 230 219
186 189 182 177 177 172 175 180 180 179 175 181 184 184 181 182 185 185 186 193 194 199 197 193 197 189 182 178 148 112 78 83 84 87 92 102 116 145 156 170 186 196 216 279 315 323 339 353 351 346 338 338 334 329 323 312 305 301 297 291 281 276 277 281 282 280 275 272 266 260 258 260 259 260 261 258 253 243 233 219 203 215 219 221 218
186 180 178 176 170 170 170 173 171 167 169 175 182 181 180 181 184 182 187 189 193 197 189 184 186 180 179 157 119 112 97 89 96 94 88 98 100 112 111 102 120 125 122 73 51 46 8 5 343 330 331 320 320 288 290 304 312 315 316 309 298 292 287 281 280 283 281 281 280 277 275 271 273 271 265 261 255 242 201 205 204 211 208 210 211
178 177 173 165 166 167 167 157 151 145 134 136 151 166 171 184 183 185 185 186 187 191 182 186 183 179 166 128 128 116 106 95 104 120 113 110 105 103 104 105 101 107 102 58 67 37 32 16 27 32 13 10 3 0 350 340 323 311 309 307 305 299 295 291 289 280 279 280 279 282 280 279 275 271 271 267 261 245 212 214 212 213 205 200 207
165 164 161 158 160 154 149 145 129 116 96 81 67 49 8 356 12 83 1 296 198 178 183 184 182 169 144 150 140 124 127 136 153 118 106 100 118 120 113 116 115 101 110 130 74 38 37 32 22 15 17 3 343 334 327 327 326 313 299 298 298 302 301 304 299 295 292 291 287 284 281 278 272 268 266 265 261 251 219 221 217 212 204 202 209
153 162 160 155 145 134 127 124 123 119 117 110 102 75 57 55 33 22 345 344 35 58 150 154 151 125 110 78 126 156 159 151 137 124 116 103 95 103 117 117 115 110 118 101 98 77 60 62 32 358 341 352 346 341 327 319 317 324 324 318 314 309 304 298 289 288 287 281 280 280 277 277 274 272 268 264 260 250 227 216 228 227 225 217 216
141 146 144 144 142 134 129 120 114 114 117 115 105 102 83 48 39 37 48 46 85 92 83 79 92 126 133 126 75 89 112 124 136 138 125 122 118 114 111 114 113 119 126 97 46 66 54 51 26 4 344 297 281 294 315 328 327 323 322 319 313 312 308 302 297 295 291 288 284 279 276 276 275 273 269 265 265 260 246 221 220 212 208 204 204
119 109 101 104 110 115 118 120 123 120 117 117 114 113 102 93 56 36 37 58 59 71 87 91 91 90 103 116 119 78 94 125 138 137 133 128 120 112 109 109 118 122 142 91 94 78 72 49 32 359 302 316 339 337 335 328 321 319 318 323 319 317 317 313 309 307 300 294 290 286 282 278 274 273 269 267 263 258 249 233 220 222 219 220 217
107 103 109 109 110 114 118 123 128 128 129 124 121 120 117 111 107 89 45 50 62 63 65 82 91 97 99 101 114 132 146 153 145 140 138 128 115 113 112 113 117 122 115 80 87 72 60 60 32 9 9 360 341 338 328 321 321 321 322 321 316 314 312 306 307 304 298 295 292 288 285 283 279 276 271 263 260 259 256 246 233 222 223 223 219
108 126 126 124 119 118 120 125 125 123 125 127 127 122 120 124 123 119 112 103 70 55 50 55 80 90 89 102 108 110 120 131 135 132 132 129 130 132 116 99 112 205 305 81 65 70 65 53 33 17 1 342 328 324 322 327 333 331 324 318 310 306 306 308 313 309 309 305 303 298 294 289 284 280 276 265 253 253 255 253 244 234 220 214 212
102 107 118 121 122 123 124 125 124 125 126 123 122 116 116 117 119 121 126 120 113 110 110 61 34 95 111 99 106 117 121 125 134 139 138 137 134 134 128 111 91 63 45 52 76 57 45 34 20 4 346 339 339 322 322 323 325 327 322 317 314 315 316 320 318 318 317 316 315 314 311 307 299 288 279 277 274 269 264 254 248 237 233 219 213
104 108 110 117 120 123 124 123 125 128 124 120 119 121 124 123 115 111 102 98 108 114 106 97 102 60 106 116 132 135 135 121 107 108 126 138 150 155 85 79 84 73 81 58 46 36 31 25 14 350 331 324 322 321 319 323 325 325 320 318 316 316 318 321 324 322 320 320 323 324 325 324 322 310 294 277 272 268 268 268 257 246 233 228 205
111 113 115 114 117 120 117 118 118 120 122 125 127 124 119 113 116 117 111 112 111 109 110 120 117 109 101 101 116 99 99 101 98 95 98 120 150 132 94 102 107 117 81 54 46 32 29 7 352 321 324 319 326 324 320 320 320 318 313 312 305 308 318 320 323 324 327 331 332 334 336 336 340 341 339 332 312 315 1 57 69 57 36 285 174
91 112 124 120 116 111 112 112 115 117 118 114 108 104 105 107 107 103 108 112 111 109 115 117 115 119 125 137 150 125 109 102 89 72 68 69 65 75 93 102 95 84 74 60 39 22 355 330 329 336 323 324 320 325 324 319 320 323 323 316 318 314 326 329 335 339 335 336 340 343 343 343 344 351 1 31 50 50 29 36 86 74 73 56 43
68 66 92 111 109 115 118 118 113 108 103 108 114 120 122 126 124 121 115 111 102 102 104 104 105 109 121 135 128 137 107 77 82 87 78 75 83 94 94 86 80 73 71 59 20 339 326 344 345 332 330 330 328 323 322 319 318 321 319 317 321 331 344 342 339 340 340 339 339 344 350 355 355 357 8 19 27 42 63 73 70 83 89 94 93
84 78 70 89 98 93 105 107 110 104 104 106 105 111 121 122 121 118 118 111 109 107 103 101 100 102 118 120 124 115 94 100 102 112 104 89 80 66 65 61 59 66 71 59 347 293 291 326 335 342 336 326 318 312 307 313 318 314 317 326 330 338 337 334 336 341 340 335 340 345 354 359 359 11 29 33 31 27 20 27 56 77 85 90 92
73 77 70 58 86 97 83 85 94 100 100 95 94 95 95 103 111 113 111 108 108 102 96 90 84 70 54 74 105 106 114 123 121 110 111 99 76 63 61 73 96 74 46 16 300 301 329 333 344 344 330 317 310 311 311 317 330 341 344 341 341 338 332 333 340 341 339 342 345 349 349 348 357 19 33 30 37 42 48 52 46 42 55 72 89
81 79 76 76 71 83 90 80 75 81 82 79 75 78 79 83 94 98 92 85 81 80 78 71 67 72 51 51 84 102 95 92 92 84 68 60 55 50 55 64 161 192 200 215 273 347 345 7 340 333 323 315 315 318 331 339 345 343 347 348 346 337 341 340 339 338 339 338 343 354 354 352 351 20 29 27 33 42 56 61 66 69 68 69 67
76 74 77 76 76 75 81 86 84 79 78 76 75 72 74 78 78 78 79 77 74 73 72 69 63 63 56 50 48 56 73 73 81 75 63 45 36 29 17 343 273 237 234 260 265 251 256 306 327 317 304 309 305 305 311 316 321 333 340 344 336 338 335 335 339 344 337 341 346 1 5 359 2 9 17 23 32 43 54 61 66 77 82 85 82
77 78 76 75 78 77 72 77 77 77 76 81 78 74 75 77 73 73 75 73 70 65 65 62 65 64 59 46 49 52 52 46 44 46 50 44 37 25 13 3 352 326 324 353 352 9 28 24 14 6 7 2 358 359 2 353 346 336 329 328 324 325 331 334 335 329 333 338 344 353 12 13 12 15 22 14 16 54 50 59 66 72 79 80 85
76 78 78 76 72 74 73 71 76 78 79 76 72 71 68 69 71 70 71 72 70 68 64 60 56 60 58 55 51 52 48 48 43 40 35 31 28 19 8 4 7 6 9 21 22 24 29 30 32 28 22 12 10 18 16 11 10 7 347 334 329 332 324 314 300 296 303 5 354 355 5 14 13 18 24 30 30 45 48 52 78 91 88 93 100
76 75 76 77 76 73 75 73 73 74 74 74 77 73 69 68 70 70 71 70 68 68 65 61 59 56 53 57 54 53 46 44 43 38 34 30 28 19 13 10 17 33 36 29 25 28 23 20 19 24 24 18 14 14 13 9 7 5 5 6 346 316 298 286 288 303 327 334 345 1 0 10 14 15 32 44 49 56 64 63 64 62 76 78 82
84 79 77 75 77 77 75 75 74 73 73 74 73 75 72 71 71 71 71 71 71 65 63 58 56 51 47 42 44 45 43 41 35 32 31 28 28 27 23 21 29 34 33 31 30 29 23 20 14 11 15 14 16 17 13 6 4 359 1 358 355 341 333 316 300 305 306 311 316 336 39 24 6 4 19 44 48 41 54 59 74 92 93 102 114
93 85 82 78 79 79 75 74 75 75 74 76 74 74 74 73 71 69 67 65 64 62 61 53 48 46 47 44 41 41 40 43 39 37 34 32 27 33 28 25 29 30 32 33 30 28 26 21 17 16 17 16 15 13 11 4 5 2 358 356 353 342 325 320 329 347 338 337 48 46 31 24 7 7 25 59 67 98 97 94 92 95 109 112 111
91 87 86 80 78 73 74 74 73 75 76 77 76 74 72 73 71 68 67 66 66 62 57 51 47 44 46 44 41 40 37 40 40 36 36 32 30 32 33 31 31 28 32 32 30 26 24 22 21 22 22 19 15 12 10 10 6 5 358 352 342 335 334 354 359 350 352 12 32 40 58 61 57 43 16 24 47 82 111 122 126 123 119 117 124
82 81 82 80 76 73 73 73 75 76 76 73 73 72 65 64 62 62 66 66 64 57 56 56 54 47 46 46 44 38 37 38 38 37 37 37 36 32 30 32 35 32 29 25 23 26 23 24 23 25 20 21 15 14 8 9 6 360 358 344 337 338 354 355 360 1 358 19 20 37 37 50 48 42 33 37 23 42 80 105 121 129 133 136 142
73 76 77 75 74 72 70 71 70 73 68 69 70 73 72 68 67 66 63 62 61 60 59 58 58 54 48 45 42 41 38 38 35 37 41 40 36 36 39 35 33 31 30 24 17 18 14 14 9 12 13 13 9 7 8 4 1 353 348 350 356 1 2 5 1 351 355 2 26 30 45 42 40 27 20 11 26 39 38 57 87 108 123 133 141